Date_Time,Julian_Date,Latitude,Longitude,Instrument_Depth,U,V,Speed,Direction
(yyyy-mm-dd hh:mn:ss UTC),(JD),(+ deg. North),(+ deg. East),(m),(cm/s),(cm/s),(cm/s),(deg True)
1984-06-14 17:30:00 UTC,2445866.229167,28.7317,-95.2428,0109,9.96,8.36,13.0000,50.0000
1984-06-14 18:00:00 UTC,2445866.250000,28.7317,-95.2428,0109,8.90,6.47,11.0000,54.0000
1984-06-14 18:30:00 UTC,2445866.270833,28.7317,-95.2428,0109,7.95,4.23,9.0000,62.0000
1984-06-14 19:00:00 UTC,2445866.291667,28.7317,-95.2428,0109,6.85,1.46,7.0000,78.0000
1984-06-14 19:30:00 UTC,2445866.312500,28.7317,-95.2428,0109,5.52,-2.34,6.0000,113.0000
1984-06-14 20:00:00 UTC,2445866.333333,28.7317,-95.2428,0109,2.85,-6.39,7.0000,156.0000
1984-06-14 20:30:00 UTC,2445866.354167,28.7317,-95.2428,0109,-0.97,-7.94,8.0000,187.0000
1984-06-14 21:00:00 UTC,2445866.375000,28.7317,-95.2428,0109,-4.69,-8.83,10.0000,208.0000
1984-06-14 21:30:00 UTC,2445866.395833,28.7317,-95.2428,0109,-6.95,-7.19,10.0000,224.0000
1984-06-14 22:00:00 UTC,2445866.416667,28.7317,-95.2428,0109,-7.79,-4.50,9.0000,240.0000
1984-06-14 22:30:00 UTC,2445866.437500,28.7317,-95.2428,0109,-7.79,-1.80,8.0000,257.0000
1984-06-14 23:00:00 UTC,2445866.458333,28.7317,-95.2428,0109,-8.00,-0.14,8.0000,269.0000
1984-06-14 23:30:00 UTC,2445866.479167,28.7317,-95.2428,0109,-8.93,1.10,9.0000,277.0000
1984-06-15 00:00:00 UTC,2445866.500000,28.7317,-95.2428,0109,-9.88,1.56,10.0000,279.0000
1984-06-15 00:30:00 UTC,2445866.520833,28.7317,-95.2428,0109,-8.86,1.56,9.0000,280.0000
1984-06-15 01:00:00 UTC,2445866.541667,28.7317,-95.2428,0109,-9.14,4.07,10.0000,294.0000
1984-06-15 01:30:00 UTC,2445866.562500,28.7317,-95.2428,0109,-8.92,8.03,12.0000,312.0000
1984-06-15 02:00:00 UTC,2445866.583333,28.7317,-95.2428,0109,-9.55,10.24,14.0000,317.0000
1984-06-15 02:30:00 UTC,2445866.604167,28.7317,-95.2428,0109,-11.51,11.11,16.0000,314.0000
1984-06-15 03:00:00 UTC,2445866.625000,28.7317,-95.2428,0109,-14.55,12.21,19.0000,310.0000
1984-06-15 03:30:00 UTC,2445866.645833,28.7317,-95.2428,0109,-14.77,11.96,19.0000,309.0000
1984-06-15 04:00:00 UTC,2445866.666667,28.7317,-95.2428,0109,-15.09,13.12,20.0000,311.0000
1984-06-15 04:30:00 UTC,2445866.687500,28.7317,-95.2428,0109,-13.38,14.86,20.0000,318.0000
1984-06-15 05:00:00 UTC,2445866.708333,28.7317,-95.2428,0109,-10.89,16.77,20.0000,327.0000
1984-06-15 05:30:00 UTC,2445866.729167,28.7317,-95.2428,0109,-11.27,21.19,24.0000,332.0000
1984-06-15 06:00:00 UTC,2445866.750000,28.7317,-95.2428,0109,-12.26,24.06,27.0000,333.0000
1984-06-15 06:30:00 UTC,2445866.770833,28.7317,-95.2428,0109,-12.27,25.17,28.0000,334.0000
1984-06-15 07:00:00 UTC,2445866.791667,28.7317,-95.2428,0109,-10.98,24.67,27.0000,336.0000
1984-06-15 07:30:00 UTC,2445866.812500,28.7317,-95.2428,0109,-10.16,23.93,26.0000,337.0000
1984-06-15 08:00:00 UTC,2445866.833333,28.7317,-95.2428,0109,-10.16,23.93,26.0000,337.0000
1984-06-15 08:30:00 UTC,2445866.854167,28.7317,-95.2428,0109,-9.77,23.01,25.0000,337.0000
1984-06-15 09:00:00 UTC,2445866.875000,28.7317,-95.2428,0109,-7.87,21.61,23.0000,340.0000
1984-06-15 09:30:00 UTC,2445866.895833,28.7317,-95.2428,0109,-5.85,19.13,20.0000,343.0000
1984-06-15 10:00:00 UTC,2445866.916667,28.7317,-95.2428,0109,-4.96,17.30,18.0000,344.0000
1984-06-15 10:30:00 UTC,2445866.937500,28.7317,-95.2428,0109,-4.94,15.22,16.0000,342.0000
1984-06-15 11:00:00 UTC,2445866.958333,28.7317,-95.2428,0109,-5.47,15.04,16.0000,340.0000
1984-06-15 11:30:00 UTC,2445866.979167,28.7317,-95.2428,0109,-5.99,14.83,16.0000,338.0000
1984-06-15 12:00:00 UTC,2445867.000000,28.7317,-95.2428,0109,-6.74,16.69,18.0000,338.0000
1984-06-15 12:30:00 UTC,2445867.020833,28.7317,-95.2428,0109,-7.42,17.49,19.0000,337.0000
1984-06-15 13:00:00 UTC,2445867.041667,28.7317,-95.2428,0109,-8.77,17.98,20.0000,334.0000
1984-06-15 13:30:00 UTC,2445867.062500,28.7317,-95.2428,0109,-9.21,16.62,19.0000,331.0000
1984-06-15 14:00:00 UTC,2445867.083333,28.7317,-95.2428,0109,-9.21,16.62,19.0000,331.0000
1984-06-15 14:30:00 UTC,2445867.104167,28.7317,-95.2428,0109,-8.92,16.78,19.0000,332.0000
1984-06-15 15:00:00 UTC,2445867.125000,28.7317,-95.2428,0109,-8.03,17.22,19.0000,335.0000
1984-06-15 15:30:00 UTC,2445867.145833,28.7317,-95.2428,0109,-7.61,16.31,18.0000,335.0000
1984-06-15 16:00:00 UTC,2445867.166667,28.7317,-95.2428,0109,-8.17,16.04,18.0000,333.0000
1984-06-15 16:30:00 UTC,2445867.187500,28.7317,-95.2428,0109,-9.50,16.45,19.0000,330.0000
1984-06-15 17:00:00 UTC,2445867.208333,28.7317,-95.2428,0109,-9.21,16.62,19.0000,331.0000
1984-06-15 17:30:00 UTC,2445867.229167,28.7317,-95.2428,0109,-8.33,17.08,19.0000,334.0000
1984-06-15 18:00:00 UTC,2445867.250000,28.7317,-95.2428,0109,-7.42,17.49,19.0000,337.0000
1984-06-15 18:30:00 UTC,2445867.270833,28.7317,-95.2428,0109,-7.49,18.54,20.0000,338.0000
1984-06-15 19:00:00 UTC,2445867.291667,28.7317,-95.2428,0109,-6.84,18.79,20.0000,340.0000
1984-06-15 19:30:00 UTC,2445867.312500,28.7317,-95.2428,0109,-5.85,19.13,20.0000,343.0000
1984-06-15 20:00:00 UTC,2445867.333333,28.7317,-95.2428,0109,-5.51,19.23,20.0000,344.0000
1984-06-15 20:30:00 UTC,2445867.354167,28.7317,-95.2428,0109,-5.85,19.13,20.0000,343.0000
1984-06-15 21:00:00 UTC,2445867.375000,28.7317,-95.2428,0109,-6.18,19.02,20.0000,342.0000
1984-06-15 21:30:00 UTC,2445867.395833,28.7317,-95.2428,0109,-5.51,19.23,20.0000,344.0000
1984-06-15 22:00:00 UTC,2445867.416667,28.7317,-95.2428,0109,-4.16,19.56,20.0000,348.0000
1984-06-15 22:30:00 UTC,2445867.437500,28.7317,-95.2428,0109,-3.82,19.63,20.0000,349.0000
1984-06-15 23:00:00 UTC,2445867.458333,28.7317,-95.2428,0109,-4.01,20.61,21.0000,349.0000
1984-06-15 23:30:00 UTC,2445867.479167,28.7317,-95.2428,0109,-4.01,20.61,21.0000,349.0000
1984-06-16 00:00:00 UTC,2445867.500000,28.7317,-95.2428,0109,-4.16,19.56,20.0000,348.0000
1984-06-16 00:30:00 UTC,2445867.520833,28.7317,-95.2428,0109,-4.50,19.49,20.0000,347.0000
1984-06-16 01:00:00 UTC,2445867.541667,28.7317,-95.2428,0109,-4.27,18.51,19.0000,347.0000
1984-06-16 01:30:00 UTC,2445867.562500,28.7317,-95.2428,0109,-3.95,18.58,19.0000,348.0000
1984-06-16 02:00:00 UTC,2445867.583333,28.7317,-95.2428,0109,-3.74,17.61,18.0000,348.0000
1984-06-16 02:30:00 UTC,2445867.604167,28.7317,-95.2428,0109,-3.82,16.56,17.0000,347.0000
1984-06-16 03:00:00 UTC,2445867.625000,28.7317,-95.2428,0109,-3.37,14.62,15.0000,347.0000
1984-06-16 03:30:00 UTC,2445867.645833,28.7317,-95.2428,0109,-2.48,12.76,13.0000,349.0000
1984-06-16 04:00:00 UTC,2445867.666667,28.7317,-95.2428,0109,-1.25,11.93,12.0000,354.0000
1984-06-16 04:30:00 UTC,2445867.687500,28.7317,-95.2428,0109,-0.45,12.99,13.0000,358.0000
1984-06-16 05:00:00 UTC,2445867.708333,28.7317,-95.2428,0109,0.68,12.98,13.0000,3.0000
1984-06-16 05:30:00 UTC,2445867.729167,28.7317,-95.2428,0109,1.81,12.87,13.0000,8.0000
1984-06-16 06:00:00 UTC,2445867.750000,28.7317,-95.2428,0109,2.26,12.80,13.0000,10.0000
1984-06-16 06:30:00 UTC,2445867.770833,28.7317,-95.2428,0109,2.43,13.79,14.0000,10.0000
1984-06-16 07:00:00 UTC,2445867.791667,28.7317,-95.2428,0109,2.09,14.85,15.0000,8.0000
1984-06-16 07:30:00 UTC,2445867.812500,28.7317,-95.2428,0109,2.23,15.84,16.0000,8.0000
1984-06-16 08:00:00 UTC,2445867.833333,28.7317,-95.2428,0109,2.95,16.74,17.0000,10.0000
1984-06-16 08:30:00 UTC,2445867.854167,28.7317,-95.2428,0109,4.11,16.50,17.0000,14.0000
1984-06-16 09:00:00 UTC,2445867.875000,28.7317,-95.2428,0109,4.69,16.34,17.0000,16.0000
1984-06-16 09:30:00 UTC,2445867.895833,28.7317,-95.2428,0109,5.25,16.17,17.0000,18.0000
1984-06-16 10:00:00 UTC,2445867.916667,28.7317,-95.2428,0109,5.47,15.04,16.0000,20.0000
1984-06-16 10:30:00 UTC,2445867.937500,28.7317,-95.2428,0109,4.88,14.18,15.0000,19.0000
1984-06-16 11:00:00 UTC,2445867.958333,28.7317,-95.2428,0109,4.64,14.27,15.0000,18.0000
1984-06-16 11:30:00 UTC,2445867.979167,28.7317,-95.2428,0109,4.39,14.34,15.0000,17.0000
1984-06-16 12:00:00 UTC,2445868.000000,28.7317,-95.2428,0109,4.64,14.27,15.0000,18.0000
1984-06-16 12:30:00 UTC,2445868.020833,28.7317,-95.2428,0109,4.64,14.27,15.0000,18.0000
1984-06-16 13:00:00 UTC,2445868.041667,28.7317,-95.2428,0109,3.88,14.49,15.0000,15.0000
1984-06-16 13:30:00 UTC,2445868.062500,28.7317,-95.2428,0109,2.43,13.79,14.0000,10.0000
1984-06-16 14:00:00 UTC,2445868.083333,28.7317,-95.2428,0109,1.57,14.92,15.0000,6.0000
1984-06-16 14:30:00 UTC,2445868.104167,28.7317,-95.2428,0109,0.63,17.99,18.0000,2.0000
1984-06-16 15:00:00 UTC,2445868.125000,28.7317,-95.2428,0109,0.35,20.00,20.0000,1.0000
1984-06-16 15:30:00 UTC,2445868.145833,28.7317,-95.2428,0109,-0.37,21.00,21.0000,359.0000
1984-06-16 16:00:00 UTC,2445868.166667,28.7317,-95.2428,0109,-1.10,20.97,21.0000,357.0000
1984-06-16 16:30:00 UTC,2445868.187500,28.7317,-95.2428,0109,-1.92,21.92,22.0000,355.0000
1984-06-16 17:00:00 UTC,2445868.208333,28.7317,-95.2428,0109,-2.51,23.87,24.0000,354.0000
1984-06-16 17:30:00 UTC,2445868.229167,28.7317,-95.2428,0109,-2.92,23.82,24.0000,353.0000
1984-06-16 18:00:00 UTC,2445868.250000,28.7317,-95.2428,0109,-2.92,23.82,24.0000,353.0000
1984-06-16 18:30:00 UTC,2445868.270833,28.7317,-95.2428,0109,-2.51,23.87,24.0000,354.0000
1984-06-16 19:00:00 UTC,2445868.291667,28.7317,-95.2428,0109,-2.00,22.91,23.0000,355.0000
1984-06-16 19:30:00 UTC,2445868.312500,28.7317,-95.2428,0109,-1.53,21.95,22.0000,356.0000
1984-06-16 20:00:00 UTC,2445868.333333,28.7317,-95.2428,0109,-1.83,20.92,21.0000,355.0000
1984-06-16 20:30:00 UTC,2445868.354167,28.7317,-95.2428,0109,-1.40,19.95,20.0000,356.0000
1984-06-16 21:00:00 UTC,2445868.375000,28.7317,-95.2428,0109,-1.05,19.97,20.0000,357.0000
1984-06-16 21:30:00 UTC,2445868.395833,28.7317,-95.2428,0109,-0.99,18.97,19.0000,357.0000
1984-06-16 22:00:00 UTC,2445868.416667,28.7317,-95.2428,0109,-0.89,16.98,17.0000,357.0000
1984-06-16 22:30:00 UTC,2445868.437500,28.7317,-95.2428,0109,-1.05,14.96,15.0000,356.0000
1984-06-16 23:00:00 UTC,2445868.458333,28.7317,-95.2428,0109,-1.46,11.91,12.0000,353.0000
1984-06-16 23:30:00 UTC,2445868.479167,28.7317,-95.2428,0109,-2.42,9.70,10.0000,346.0000
1984-06-17 00:00:00 UTC,2445868.500000,28.7317,-95.2428,0109,-3.23,8.40,9.0000,339.0000
1984-06-17 00:30:00 UTC,2445868.520833,28.7317,-95.2428,0109,-2.72,5.35,6.0000,333.0000
1984-06-17 01:00:00 UTC,2445868.541667,28.7317,-95.2428,0109,-1.89,2.33,3.0000,321.0000
1984-06-17 01:30:00 UTC,2445868.562500,28.7317,-95.2428,0109,-1.99,-0.17,2.0000,265.0000
1984-06-17 02:00:00 UTC,2445868.583333,28.7317,-95.2428,0109,-3.28,-2.29,4.0000,235.0000
1984-06-17 02:30:00 UTC,2445868.604167,28.7317,-95.2428,0109,-3.94,-3.08,5.0000,232.0000
1984-06-17 03:00:00 UTC,2445868.625000,28.7317,-95.2428,0109,-4.97,-3.36,6.0000,236.0000
1984-06-17 03:30:00 UTC,2445868.645833,28.7317,-95.2428,0109,-5.87,-3.81,7.0000,237.0000
1984-06-17 04:00:00 UTC,2445868.666667,28.7317,-95.2428,0109,-6.22,-5.03,8.0000,231.0000
1984-06-17 04:30:00 UTC,2445868.687500,28.7317,-95.2428,0109,-5.54,-7.09,9.0000,218.0000
1984-06-17 05:00:00 UTC,2445868.708333,28.7317,-95.2428,0109,-4.54,-8.91,10.0000,207.0000
1984-06-17 05:30:00 UTC,2445868.729167,28.7317,-95.2428,0109,-3.58,-10.40,11.0000,199.0000
1984-06-17 06:00:00 UTC,2445868.750000,28.7317,-95.2428,0109,-2.10,-10.80,11.0000,191.0000
1984-06-17 06:30:00 UTC,2445868.770833,28.7317,-95.2428,0109,-2.49,-11.74,12.0000,192.0000
1984-06-17 07:00:00 UTC,2445868.791667,28.7317,-95.2428,0109,-5.47,-15.04,16.0000,200.0000
1984-06-17 07:30:00 UTC,2445868.812500,28.7317,-95.2428,0109,-8.45,-18.13,20.0000,205.0000
1984-06-17 08:00:00 UTC,2445868.833333,28.7317,-95.2428,0109,-9.70,-17.49,20.0000,209.0000
1984-06-17 08:30:00 UTC,2445868.854167,28.7317,-95.2428,0109,-9.80,-15.10,18.0000,213.0000
1984-06-17 09:00:00 UTC,2445868.875000,28.7317,-95.2428,0109,-10.35,-15.93,19.0000,213.0000
1984-06-17 09:30:00 UTC,2445868.895833,28.7317,-95.2428,0109,-9.39,-17.66,20.0000,208.0000
1984-06-17 10:00:00 UTC,2445868.916667,28.7317,-95.2428,0109,-8.13,-18.27,20.0000,204.0000
1984-06-17 10:30:00 UTC,2445868.937500,28.7317,-95.2428,0109,-6.74,-16.69,18.0000,202.0000
1984-06-17 11:00:00 UTC,2445868.958333,28.7317,-95.2428,0109,-6.51,-14.62,16.0000,204.0000
1984-06-17 11:30:00 UTC,2445868.979167,28.7317,-95.2428,0109,-6.36,-12.47,14.0000,207.0000
1984-06-17 12:00:00 UTC,2445869.000000,28.7317,-95.2428,0109,-6.54,-10.06,12.0000,213.0000
1984-06-17 12:30:00 UTC,2445869.020833,28.7317,-95.2428,0109,-7.22,-8.30,11.0000,221.0000
1984-06-17 13:00:00 UTC,2445869.041667,28.7317,-95.2428,0109,-6.95,-7.19,10.0000,224.0000
1984-06-17 13:30:00 UTC,2445869.062500,28.7317,-95.2428,0109,-6.56,-7.55,10.0000,221.0000
1984-06-17 14:00:00 UTC,2445869.083333,28.7317,-95.2428,0109,-6.95,-7.19,10.0000,224.0000
1984-06-17 14:30:00 UTC,2445869.104167,28.7317,-95.2428,0109,-8.04,-7.50,11.0000,227.0000
1984-06-17 15:00:00 UTC,2445869.125000,28.7317,-95.2428,0109,-9.81,-8.53,13.0000,229.0000
1984-06-17 15:30:00 UTC,2445869.145833,28.7317,-95.2428,0109,-11.32,-9.84,15.0000,229.0000
1984-06-17 16:00:00 UTC,2445869.166667,28.7317,-95.2428,0109,-12.83,-11.15,17.0000,229.0000
1984-06-17 16:30:00 UTC,2445869.187500,28.7317,-95.2428,0109,-14.63,-13.64,20.0000,227.0000
1984-06-17 17:00:00 UTC,2445869.208333,28.7317,-95.2428,0109,-15.28,-15.83,22.0000,224.0000
1984-06-17 17:30:00 UTC,2445869.229167,28.7317,-95.2428,0109,-15.43,-18.39,24.0000,220.0000
1984-06-17 18:00:00 UTC,2445869.250000,28.7317,-95.2428,0109,-15.39,-19.70,25.0000,218.0000
1984-06-17 18:30:00 UTC,2445869.270833,28.7317,-95.2428,0109,-16.01,-20.49,26.0000,218.0000
1984-06-17 19:00:00 UTC,2445869.291667,28.7317,-95.2428,0109,-16.36,-20.21,26.0000,219.0000
1984-06-17 19:30:00 UTC,2445869.312500,28.7317,-95.2428,0109,-18.07,-20.06,27.0000,222.0000
1984-06-17 20:00:00 UTC,2445869.333333,28.7317,-95.2428,0109,-20.06,-18.07,27.0000,228.0000
1984-06-17 20:30:00 UTC,2445869.354167,28.7317,-95.2428,0109,-22.64,-14.71,27.0000,237.0000
1984-06-17 21:00:00 UTC,2445869.375000,28.7317,-95.2428,0109,-23.61,-13.09,27.0000,241.0000
1984-06-17 21:30:00 UTC,2445869.395833,28.7317,-95.2428,0109,-23.84,-12.68,27.0000,242.0000
1984-06-17 22:00:00 UTC,2445869.416667,28.7317,-95.2428,0109,-24.06,-12.26,27.0000,243.0000
1984-06-17 22:30:00 UTC,2445869.437500,28.7317,-95.2428,0109,-24.95,-12.71,28.0000,243.0000
1984-06-17 23:00:00 UTC,2445869.458333,28.7317,-95.2428,0109,-24.95,-12.71,28.0000,243.0000
1984-06-17 23:30:00 UTC,2445869.479167,28.7317,-95.2428,0109,-24.72,-13.15,28.0000,242.0000
1984-06-18 00:00:00 UTC,2445869.500000,28.7317,-95.2428,0109,-24.49,-13.57,28.0000,241.0000
1984-06-18 00:30:00 UTC,2445869.520833,28.7317,-95.2428,0109,-24.25,-14.00,28.0000,240.0000
1984-06-18 01:00:00 UTC,2445869.541667,28.7317,-95.2428,0109,-24.25,-14.00,28.0000,240.0000
1984-06-18 01:30:00 UTC,2445869.562500,28.7317,-95.2428,0109,-24.25,-14.00,28.0000,240.0000
1984-06-18 02:00:00 UTC,2445869.583333,28.7317,-95.2428,0109,-23.75,-14.84,28.0000,238.0000
1984-06-18 02:30:00 UTC,2445869.604167,28.7317,-95.2428,0109,-23.21,-15.66,28.0000,236.0000
1984-06-18 03:00:00 UTC,2445869.625000,28.7317,-95.2428,0109,-23.76,-16.63,29.0000,235.0000
1984-06-18 03:30:00 UTC,2445869.645833,28.7317,-95.2428,0109,-24.04,-16.22,29.0000,236.0000
1984-06-18 04:00:00 UTC,2445869.666667,28.7317,-95.2428,0109,-24.00,-14.42,28.0000,239.0000
1984-06-18 04:30:00 UTC,2445869.687500,28.7317,-95.2428,0109,-23.61,-13.09,27.0000,241.0000
1984-06-18 05:00:00 UTC,2445869.708333,28.7317,-95.2428,0109,-22.90,-14.31,27.0000,238.0000
1984-06-18 05:30:00 UTC,2445869.729167,28.7317,-95.2428,0109,-21.84,-15.87,27.0000,234.0000
1984-06-18 06:00:00 UTC,2445869.750000,28.7317,-95.2428,0109,-20.98,-16.99,27.0000,231.0000
1984-06-18 06:30:00 UTC,2445869.770833,28.7317,-95.2428,0109,-22.22,-18.64,29.0000,230.0000
1984-06-18 07:00:00 UTC,2445869.791667,28.7317,-95.2428,0109,-24.09,-19.51,31.0000,231.0000
1984-06-18 07:30:00 UTC,2445869.812500,28.7317,-95.2428,0109,-25.08,-18.22,31.0000,234.0000
1984-06-18 08:00:00 UTC,2445869.833333,28.7317,-95.2428,0109,-25.16,-16.34,30.0000,237.0000
1984-06-18 08:30:00 UTC,2445869.854167,28.7317,-95.2428,0109,-24.86,-14.94,29.0000,239.0000
1984-06-18 09:00:00 UTC,2445869.875000,28.7317,-95.2428,0109,-25.84,-13.17,29.0000,243.0000
1984-06-18 09:30:00 UTC,2445869.895833,28.7317,-95.2428,0109,-27.25,-9.92,29.0000,250.0000
1984-06-18 10:00:00 UTC,2445869.916667,28.7317,-95.2428,0109,-28.14,-7.02,29.0000,256.0000
1984-06-18 10:30:00 UTC,2445869.937500,28.7317,-95.2428,0109,-27.57,-4.86,28.0000,260.0000
1984-06-18 11:00:00 UTC,2445869.958333,28.7317,-95.2428,0109,-27.73,-3.90,28.0000,262.0000
1984-06-18 11:30:00 UTC,2445869.979167,28.7317,-95.2428,0109,-27.85,-2.93,28.0000,264.0000
1984-06-18 12:00:00 UTC,2445870.000000,28.7317,-95.2428,0109,-26.90,-2.35,27.0000,265.0000
1984-06-18 12:30:00 UTC,2445870.020833,28.7317,-95.2428,0109,-24.90,-2.18,25.0000,265.0000
1984-06-18 13:00:00 UTC,2445870.041667,28.7317,-95.2428,0109,-23.82,-2.92,24.0000,263.0000
1984-06-18 13:30:00 UTC,2445870.062500,28.7317,-95.2428,0109,-22.65,-3.99,23.0000,260.0000
1984-06-18 14:00:00 UTC,2445870.083333,28.7317,-95.2428,0109,-21.67,-3.82,22.0000,260.0000
1984-06-18 14:30:00 UTC,2445870.104167,28.7317,-95.2428,0109,-20.74,-3.29,21.0000,261.0000
1984-06-18 15:00:00 UTC,2445870.125000,28.7317,-95.2428,0109,-19.70,-3.47,20.0000,260.0000
1984-06-18 15:30:00 UTC,2445870.145833,28.7317,-95.2428,0109,-19.70,-3.47,20.0000,260.0000
1984-06-18 16:00:00 UTC,2445870.166667,28.7317,-95.2428,0109,-19.70,-3.47,20.0000,260.0000
1984-06-18 16:30:00 UTC,2445870.187500,28.7317,-95.2428,0109,-20.61,-4.01,21.0000,259.0000
1984-06-18 17:00:00 UTC,2445870.208333,28.7317,-95.2428,0109,-20.68,-3.65,21.0000,260.0000
1984-06-18 17:30:00 UTC,2445870.229167,28.7317,-95.2428,0109,-20.80,-2.92,21.0000,262.0000
1984-06-18 18:00:00 UTC,2445870.250000,28.7317,-95.2428,0109,-20.92,-1.83,21.0000,265.0000
1984-06-18 18:30:00 UTC,2445870.270833,28.7317,-95.2428,0109,-20.00,-0.00,20.0000,270.0000
1984-06-18 19:00:00 UTC,2445870.291667,28.7317,-95.2428,0109,-19.95,1.40,20.0000,274.0000
1984-06-18 19:30:00 UTC,2445870.312500,28.7317,-95.2428,0109,-18.93,1.66,19.0000,275.0000
1984-06-18 20:00:00 UTC,2445870.333333,28.7317,-95.2428,0109,-18.86,2.32,19.0000,277.0000
1984-06-18 20:30:00 UTC,2445870.354167,28.7317,-95.2428,0109,-17.61,3.74,18.0000,282.0000
1984-06-18 21:00:00 UTC,2445870.375000,28.7317,-95.2428,0109,-16.17,5.25,17.0000,288.0000
1984-06-18 21:30:00 UTC,2445870.395833,28.7317,-95.2428,0109,-14.00,5.38,15.0000,291.0000
1984-06-18 22:00:00 UTC,2445870.416667,28.7317,-95.2428,0109,-13.91,5.62,15.0000,292.0000
1984-06-18 22:30:00 UTC,2445870.437500,28.7317,-95.2428,0109,-12.89,5.47,14.0000,293.0000
1984-06-18 23:00:00 UTC,2445870.458333,28.7317,-95.2428,0109,-12.69,5.92,14.0000,295.0000
1984-06-18 23:30:00 UTC,2445870.479167,28.7317,-95.2428,0109,-11.78,5.49,13.0000,295.0000
1984-06-19 00:00:00 UTC,2445870.500000,28.7317,-95.2428,0109,-10.96,4.88,12.0000,294.0000
1984-06-19 00:30:00 UTC,2445870.520833,28.7317,-95.2428,0109,-10.27,3.94,11.0000,291.0000
1984-06-19 01:00:00 UTC,2445870.541667,28.7317,-95.2428,0109,-10.72,2.47,11.0000,283.0000
1984-06-19 01:30:00 UTC,2445870.562500,28.7317,-95.2428,0109,-9.99,0.52,10.0000,273.0000
1984-06-19 02:00:00 UTC,2445870.583333,28.7317,-95.2428,0109,-9.88,-1.56,10.0000,261.0000
1984-06-19 02:30:00 UTC,2445870.604167,28.7317,-95.2428,0109,-10.27,-3.94,11.0000,249.0000
1984-06-19 03:00:00 UTC,2445870.625000,28.7317,-95.2428,0109,-9.43,-5.67,11.0000,239.0000
1984-06-19 03:30:00 UTC,2445870.645833,28.7317,-95.2428,0109,-8.43,-7.07,11.0000,230.0000
1984-06-19 04:00:00 UTC,2445870.666667,28.7317,-95.2428,0109,-7.22,-8.30,11.0000,221.0000
1984-06-19 04:30:00 UTC,2445870.687500,28.7317,-95.2428,0109,-6.36,-10.18,12.0000,212.0000
1984-06-19 05:00:00 UTC,2445870.708333,28.7317,-95.2428,0109,-5.70,-11.68,13.0000,206.0000
1984-06-19 05:30:00 UTC,2445870.729167,28.7317,-95.2428,0109,-5.47,-12.89,14.0000,203.0000
1984-06-19 06:00:00 UTC,2445870.750000,28.7317,-95.2428,0109,-4.79,-13.16,14.0000,200.0000
1984-06-19 06:30:00 UTC,2445870.770833,28.7317,-95.2428,0109,-4.39,-14.34,15.0000,197.0000
1984-06-19 07:00:00 UTC,2445870.791667,28.7317,-95.2428,0109,-3.39,-13.58,14.0000,194.0000
1984-06-19 07:30:00 UTC,2445870.812500,28.7317,-95.2428,0109,-2.67,-13.74,14.0000,191.0000
1984-06-19 08:00:00 UTC,2445870.833333,28.7317,-95.2428,0109,-2.19,-13.83,14.0000,189.0000
1984-06-19 08:30:00 UTC,2445870.854167,28.7317,-95.2428,0109,-2.19,-13.83,14.0000,189.0000
1984-06-19 09:00:00 UTC,2445870.875000,28.7317,-95.2428,0109,-2.67,-13.74,14.0000,191.0000
1984-06-19 09:30:00 UTC,2445870.895833,28.7317,-95.2428,0109,-2.92,-12.67,13.0000,193.0000
1984-06-19 10:00:00 UTC,2445870.916667,28.7317,-95.2428,0109,-2.92,-12.67,13.0000,193.0000
1984-06-19 10:30:00 UTC,2445870.937500,28.7317,-95.2428,0109,-2.29,-11.78,12.0000,191.0000
1984-06-19 11:00:00 UTC,2445870.958333,28.7317,-95.2428,0109,-1.53,-10.89,11.0000,188.0000
1984-06-19 11:30:00 UTC,2445870.979167,28.7317,-95.2428,0109,-0.17,-10.00,10.0000,181.0000
1984-06-19 12:00:00 UTC,2445871.000000,28.7317,-95.2428,0109,0.87,-9.96,10.0000,175.0000
1984-06-19 12:30:00 UTC,2445871.020833,28.7317,-95.2428,0109,1.91,-9.82,10.0000,169.0000
1984-06-19 13:00:00 UTC,2445871.041667,28.7317,-95.2428,0109,3.09,-9.51,10.0000,162.0000
1984-06-19 13:30:00 UTC,2445871.062500,28.7317,-95.2428,0109,4.82,-9.89,11.0000,154.0000
1984-06-19 14:00:00 UTC,2445871.083333,28.7317,-95.2428,0109,5.99,-9.23,11.0000,147.0000
1984-06-19 14:30:00 UTC,2445871.104167,28.7317,-95.2428,0109,8.78,-8.18,12.0000,133.0000
1984-06-19 15:00:00 UTC,2445871.125000,28.7317,-95.2428,0109,11.97,-5.08,13.0000,113.0000
1984-06-19 15:30:00 UTC,2445871.145833,28.7317,-95.2428,0109,13.58,-3.39,14.0000,104.0000
1984-06-19 16:00:00 UTC,2445871.166667,28.7317,-95.2428,0109,14.34,-4.39,15.0000,107.0000
1984-06-19 16:30:00 UTC,2445871.187500,28.7317,-95.2428,0109,14.83,-5.99,16.0000,112.0000
1984-06-19 17:00:00 UTC,2445871.208333,28.7317,-95.2428,0109,13.24,-7.04,15.0000,118.0000
1984-06-19 17:30:00 UTC,2445871.229167,28.7317,-95.2428,0109,10.65,-7.46,13.0000,125.0000
1984-06-19 18:00:00 UTC,2445871.250000,28.7317,-95.2428,0109,6.22,-5.03,8.0000,129.0000
1984-06-19 18:30:00 UTC,2445871.270833,28.7317,-95.2428,0109,3.94,-3.08,5.0000,128.0000
1984-06-19 19:00:00 UTC,2445871.291667,28.7317,-95.2428,0109,5.80,-3.91,7.0000,124.0000
1984-06-19 19:30:00 UTC,2445871.312500,28.7317,-95.2428,0109,7.55,-4.90,9.0000,123.0000
1984-06-19 20:00:00 UTC,2445871.333333,28.7317,-95.2428,0109,7.87,-4.36,9.0000,119.0000
1984-06-19 20:30:00 UTC,2445871.354167,28.7317,-95.2428,0109,7.65,-2.34,8.0000,107.0000
1984-06-19 21:00:00 UTC,2445871.375000,28.7317,-95.2428,0109,8.00,-0.14,8.0000,91.0000
1984-06-19 21:30:00 UTC,2445871.395833,28.7317,-95.2428,0109,8.99,0.31,9.0000,88.0000
1984-06-19 22:00:00 UTC,2445871.416667,28.7317,-95.2428,0109,9.99,-0.35,10.0000,92.0000
1984-06-19 22:30:00 UTC,2445871.437500,28.7317,-95.2428,0109,10.99,-0.38,11.0000,92.0000
1984-06-19 23:00:00 UTC,2445871.458333,28.7317,-95.2428,0109,10.99,0.38,11.0000,88.0000
1984-06-19 23:30:00 UTC,2445871.479167,28.7317,-95.2428,0109,10.89,1.53,11.0000,82.0000
1984-06-20 00:00:00 UTC,2445871.500000,28.7317,-95.2428,0109,11.59,3.11,12.0000,75.0000
1984-06-20 00:30:00 UTC,2445871.520833,28.7317,-95.2428,0109,11.35,3.91,12.0000,71.0000
1984-06-20 01:00:00 UTC,2445871.541667,28.7317,-95.2428,0109,12.50,3.58,13.0000,74.0000
1984-06-20 01:30:00 UTC,2445871.562500,28.7317,-95.2428,0109,13.64,3.15,14.0000,77.0000
1984-06-20 02:00:00 UTC,2445871.583333,28.7317,-95.2428,0109,14.62,3.37,15.0000,77.0000
1984-06-20 02:30:00 UTC,2445871.604167,28.7317,-95.2428,0109,13.64,3.15,14.0000,77.0000
1984-06-20 03:00:00 UTC,2445871.625000,28.7317,-95.2428,0109,13.74,2.67,14.0000,79.0000
1984-06-20 03:30:00 UTC,2445871.645833,28.7317,-95.2428,0109,13.90,1.71,14.0000,83.0000
1984-06-20 04:00:00 UTC,2445871.666667,28.7317,-95.2428,0109,13.97,0.98,14.0000,86.0000
1984-06-20 04:30:00 UTC,2445871.687500,28.7317,-95.2428,0109,14.99,0.52,15.0000,88.0000
1984-06-20 05:00:00 UTC,2445871.708333,28.7317,-95.2428,0109,15.96,1.12,16.0000,86.0000